This is the latest recevied weather packets stored in our database for station/object WX7FGZ-6. If no packets are shown the sender has not sent any weather packets the latest 10 day(s).
| Time | Temp. | Humidity | Pressure | Rain* | Wind** | Luminosity | Snow |
|---|---|---|---|---|---|---|---|
| 1777590974 | 5° C | 37% | 1016.4 hPa | 0 mm | - | - | - |
| 1777590674 | 5° C | 39% | 1016.5 hPa | 0 mm | - | - | - |
| 1777590374 | 5° C | 38% | 1016.4 hPa | 0 mm | - | - | - |
| 1777590326 | 5° C | 37% | 1016.4 hPa | 0 mm | - | - | - |
| 1777590074 | 5° C | 37% | 1016.4 hPa | 0 mm | - | - | - |
| 1777589774 | 5° C | 36% | 1016.4 hPa | 0 mm | - | - | - |
| 1777589474 | 5° C | 35% | 1016.7 hPa | 0 mm | - | - | - |
| 1777589174 | 5.56° C | 37% | 1016.6 hPa | 0 mm | - | - | - |
| 1777588873 | 5.56° C | 39% | 1016.5 hPa | 0 mm | - | - | - |
| 1777588574 | 5.56° C | 35% | 1016.5 hPa | 0 mm | - | - | - |
| 1777588274 | 5.56° C | 37% | 1016.6 hPa | 0 mm | - | - | - |
| 1777587974 | 5.56° C | 37% | 1017.4 hPa | 0 mm | - | - | - |
| 1777587674 | 6.11° C | 36% | 1017.3 hPa | 0 mm | - | - | - |
| 1777587374 | 6.67° C | 34% | 1017.4 hPa | 0 mm | - | - | - |
| 1777587074 | 7.22° C | 36% | 1017.5 hPa | 0 mm | - | - | - |
| 1777586774 | 7.22° C | 35% | 1017.6 hPa | 0 mm | - | - | - |
| 1777586474 | 7.22° C | 37% | 1017.6 hPa | 0 mm | - | - | - |
| 1777585873 | 6.67° C | 35% | 1017.8 hPa | 0 mm | - | - | - |
| 1777585574 | 7.22° C | 36% | 1017.9 hPa | 0 mm | - | - | - |
| 1777585274 | 7.22° C | 34% | 1018.1 hPa | 0 mm | - | - | - |
| 1777585185 | 7.78° C | 33% | 1018.1 hPa | 0 mm | - | - | - |
| 1777584974 | 7.78° C | 33% | 1018.1 hPa | 0 mm | - | - | - |
| 1777584674 | 8.33° C | 35% | 1018.1 hPa | 0 mm | - | - | - |
| 1777584596 | 8.33° C | 33% | 1018.1 hPa | 0 mm | - | - | - |
| 1777584374 | 8.33° C | 33% | 1018.1 hPa | 0 mm | - | - | - |
* Rain latest hour (hover to see other rain measurements)
** Current wind speed in m/s (hover to see current wind gust speed)